Regional Weather Roundup
Issued by NWS Grand Forks, ND

Home | Current Version | Previous Version | Graphics & Text | Print | Product List | Glossary On
Versions: 1 2 3 4 5 6 7 8 9 10 11 12 13 14 15 16 17 18 19 20 21 22 23 24 25 26 27 28 29 30 31 32 33 34 35 36 37 38 39 40 41 42 43 44 45 46 47 48 49 50
000
ASUS43 KFGF 022031
RWRFGF
PRAIRIE TO PINES  WEATHER ROUNDUP
NATIONAL WEATHER SERVICE EASTERN NORTH DAKOTA/GRAND FORKS ND
300 PM CDT WED SEP 02 2015

 **SATELLITE DATA USED TO AUGMENT SKY COVER AT AUTOMATED STATIONS**
 *****  WEATHER ACROSS EASTERN NORTH DAKOTA  *****

CITY           SKY/WX    TMP DP  RH WIND       PRES   REMARKS
GRAND FORKS    SUNNY     88  66  48 S14G22    29.79F HX  90
GRAND FRKS AFB SUNNY     87  67  51 S15       29.80F HX  90
GRAND FRKS NWS   N/A     88 N/A N/A SE16        N/A
DEVILS LAKE    SUNNY     88  66  48 SE13      29.77S HX  90
FARGO          SUNNY     90  65  43 SE14G24   29.80F HX  92
WAHPETON ARPT  CLEAR     86  64  48 SE14G22   29.81F
$$

 ***** WEATHER ACROSS CENTRAL AND WESTERN NORTH DAKOTA  *****

CITY           SKY/WX    TMP DP  RH WIND       PRES   REMARKS
BISMARCK       SUNNY     88  68  51 SE8       29.75F HX  91
MINOT          SUNNY     92  60  34 SE13      29.71F HX  91
JAMESTOWN      SUNNY     88  68  51 SE15G29   29.77F HX  91
MINOT AFB      SUNNY     95  59  30 SE15      29.69F HX  94
GARRISON         N/A     93  63  36 SE10      29.73F HX  94
WILLISTON      SUNNY     97  52  21 SE18G24   29.68F HX  94
DICKINSON      MOSUNNY   93  45  19 S17G23    29.74F
HETTINGER      SUNNY     92  48  22 S10G22    29.79S
$$

 *****  OTHER AIRPORT OBSERVATIONS IN OUR AREA  *****

CITY           SKY/WX    TMP DP  RH WIND       PRES   REMARKS
WALHALLA       FAIR      86  72  62 MISG      29.77F HAZE    HX  92
GRAFTON AIRPOR FAIR      88  68  51 S14G22    29.79F HX  91
VALLEY CITY AR FAIR      86  72  62 SE15G21   29.80F HX  92
CANDO          FAIR      90  66  45 S9G21     29.78S HX  92
CAVALIER APRT  FAIR      86  66  51 S12G21    29.78F
GWINNER        FAIR      88  70  55 E15       29.79F HX  92
SHEYENNE NWR     N/A     87  71  57 SE14      29.95S HX  92
ROLLA            N/A     90  64  43 S16       29.79S HX  91
 ***** THE ABOVE OBSERVATIONS ARE NON NWS ARE NOT QUALITY
       CONTROLLED AND MAY MIS-REPORT RAIN FOR SNOW...
$$

  *****  WEATHER ACROSS NORTHERN MINNESOTA  *****

CITY           SKY/WX    TMP DP  RH WIND       PRES   REMARKS
FLAG ISLAND    SUNNY     77  68  73 SE12      29.85F
WARROAD        SUNNY     86  72  62 S9        29.85F HX  92
ROSEAU         SUNNY     88  70  55 S12G20    29.84F HX  92
HALLOCK        SUNNY     90  63  40 S17       29.78F HX  90
THF RVR FALLS  SUNNY     88  64  45 SE15      29.83F
BAUDETTE       MOSUNNY   86  70  58 S9        29.88S HX  90
WASKISH        SUNNY     82  64  54 SE9       29.88F
CROOKSTON      SUNNY     90  63  40 S14G20    29.81F HX  90
GREENBUSH NDAW   N/A     88  64  45 S12         N/A
$$
  *****  WEATHER ACROSS CENTRAL AND WEST MINNESOTA  *****

CITY           SKY/WX    TMP DP  RH WIND       PRES   REMARKS
FOSSTON        SUNNY     88  61  40 SE12      29.86F
BEMIDJI        SUNNY     83  65  53 SE15      29.89F
PARK RAPIDS    SUNNY     84  62  47 SE15      29.90S
ELBOW LAKE     FAIR      81  70  68 E14G21    29.85F
WADENA         SUNNY     82  66  57 SE15      29.88F
DETROIT LAKES  SUNNY     84  63  48 SE14      29.88S
MOORHEAD       SUNNY     90  64  43 SE15      29.81F HX  91
FERGUS FALLS   SUNNY     84  66  54 SE16      29.83F
MORRIS MN      SUNNY     84  72  65 SE10      29.83F
STAPLES        MOSUNNY   82  64  54 SE10      29.89F
$$
  *****  WEATHER ELSEWHERE ACROSS MINNESOTA  *****

CITY           SKY/WX    TMP DP  RH WIND       PRES   REMARKS
DULUTH         MOSUNNY   75  66  73 SE9       29.97S
INTRNTL FALLS  SUNNY     82  66  58 SE7       29.91F
ELY            CLOUDY    75  61  60 SE10      29.97F
CLOQUET        MOSUNNY   75  63  64 SE7       29.95S
WHEATON        SUNNY     82  70  65 E17       29.82F
BRAINERD       MOSUNNY   77  66  68 E8G18     29.92R
HIBBING        SUNNY     79  66  64 E14       29.95R
ALEXANDRIA     MOSUNNY   80  68  66 E15       29.91R
SAINT CLOUD    CLOUDY    77  69  76 SE12      29.90F
MINNEAPOLIS    CLOUDY    73  66  78 E10       29.91S
$$

  *****  WEATHER ACROSS SOUTH DAKOTA  *****

CITY           SKY/WX    TMP DP  RH WIND       PRES   REMARKS
SIOUX FALLS    PTSUNNY   85  73  67 SE15G22   29.82F HX  91
BROOKINGS      MOSUNNY   84  72  65 SE16      29.84S
WATERTOWN      MOSUNNY   88  71  57 SE12G17   29.82F HX  94
HURON          PTSUNNY   88  71  57 S8        29.76F HX  94
SISSETON         N/A     87  70  56 SE16G22   29.80F HX  92
ABERDEEN       PTSUNNY   88  71  57 SE10      29.77F HX  94
MITCHELL       MOSUNNY   89  72  56 S16       29.78S HX  96
PIERRE         MOSUNNY   93  61  34 S5        29.74F HX  93
MOBRIDGE       SUNNY     89  70  53 SE10      29.74F HX  94
RAPID CITY     SUNNY     94  52  24 VRB3      29.80F HX  91
$$

  *****  SOME WEATHER IN NEARBY STATES *****

CITY           SKY/WX    TMP DP  RH WIND       PRES   REMARKS
GLASGOW MT     MOSUNNY   91  38  15 VRB6      29.64F
GREAT FALLS MT CLOUDY    85  33  15 W25G33    29.71F
CHEYENNE WY    MOSUNNY   85  36  17 NE5       30.10F
SCOTTSBLUFF NE SUNNY     92  45  19 VRB3      29.94F
OMAHA NE       MOSUNNY   88  69  53 S20       29.87F HX  92
DES MOINES IA  MOSUNNY   88  67  49 SW14G23   29.90F HX  91
DAVENPORT IA   CLOUDY    83  69  62 S8        29.99F
CHICAGO IL     PTSUNNY   88  67  49 SW13G21   29.99F HX  91
EAU CLAIRE WI  CLOUDY    68  66  93 SW10G18   29.94S THUNDER
LA CROSSE WI   MOSUNNY   87  68  52 S13       29.91F HX  90
$$

  *****  SOME NATIONAL WEATHER *****

CITY           SKY/WX    TMP DP  RH WIND       PRES   REMARKS
LA GUARDIA NY  PTSUNNY   86  64  47 S15       29.91F
RALEIGH NC     PTSUNNY   90  68  48 SW9       29.99F HX  94
ATLANTA GA     PTSUNNY   88  67  49 N5        30.05F HX  91
NEW ORLEANS LA LGT RAIN  79  72  79 S7        30.05F
OKLAHOMA CITY  MOSUNNY   92  64  39 SW13G24   29.99F HX  93
ALBUQUERQUE NM MOSUNNY   86  45  23 CALM      30.17F
SALT LAKE CITY MOSUNNY   89  40  17 S21G32    29.95F
LOS ANGELES CA PTSUNNY   73  60  63 W14       29.97S
BOISE ID       CLOUDY    82  36  19 CALM      29.84F
SEATTLE WA     PTSUNNY   66  47  50 SW15      29.91S
$$

*** WEATHER ACROSS MANITOBA...SASKATCHEWAN AND ONTARIO ***
                ***ONTARIO***

CITY           SKY/WX    TMP DP  RH WIND       PRES   REMARKS
GERALDTON      PTSUNNY   79  54  41 W7        29.98F
THUNDER BAY    PTSUNNY   73  57  56 NE7       29.98F
SIOUX LOOKOUT  MOSUNNY   82  55  39 S9G17     29.93F
TORONTO        PTSUNNY   90  66  45 W7G17     29.94F HX  92
BIG TROUT LK   MOSUNNY   72  57  60 SE6       29.89F
PICKLE LAKE    MOSUNNY   84  55  37 SW8       29.93F
DRYDEN         SUNNY     84  59  42 SE17      29.92S
KENORA         PTSUNNY   82  70  65 SW13G20   29.88F
$$
                *** MANITOBA***

CITY           SKY/WX    TMP DP  RH WIND       PRES   REMARKS
BRANDON        MOSUNNY   86  68  54 E12       29.76S
DAUPHIN        SUNNY     84  50  30 E8        29.76F
ISLAND LAKE    PTSUNNY   72  63  73 SE10      29.78S
PILOT MOUND      N/A     91  59  33 S14G21      N/A  HX  90
THE PAS        CLOUDY    72  57  60 NE5       29.75F
THOMPSON       PTSUNNY   66  57  72 NW5       29.80S
WINNIPEG       MOSUNNY   88  70  55 S16G24    29.78F HX  92
LYNN LAKE      PTSUNNY   64  45  48 N3        29.80F
CHURCHILL      CLOUDY    57  50  77 S6        29.83F
GILLAM         PTSUNNY   70  57  64 S8        29.81F
$$
                ***SASKATCHEWAN***

CITY           SKY/WX    TMP DP  RH WIND       PRES   REMARKS
ESTEVAN        MOSUNNY   95  55  26 S22       29.69F HX  93
KINDERSLEY     PTSUNNY   77  36  22 S7        29.60F
LLOYDMINSTER   PTSUNNY   72  45  37 S10       29.56S
PRINCE ALBERT  CLOUDY    73  54  49 SE13      29.62F
REGINA         PTSUNNY   90  57  33 SE26G33   29.60F
YORKTON        SUNNY     86  45  23 SE16G23   29.71F
N. BATTLEFORD  MOSUNNY   70  46  43 S6G33     29.61F
LA RONGE       CLOUDY    66  48  52 NE12G21   29.68F
SASKATOON      CLOUDY    75  54  46 E6        29.61F
SWIFT CURRENT  MOSUNNY   79  43  27 W15       29.63S
$$
NOTE: THESE ARE AUTOMATED STATIONS WITH LIMITED QUALITY CONTROL
      "FAIR" INDICATES FEW OR NO CLOUDS BELOW 12,000 FEET WITH NO
      SIGNIFICANT WEATHER AND/OR OBSTRUCTIONS TO VISIBILITY.
      SKY/WX - SKY CONDITION AND SIGNIFICANT WEATHER.
      TMP - AIR TEMPERATURE.    DP   - DEWPOINT TEMPERATURE.
      RH  - RELATIVE HUMIDITY.  PRES - PRESSURE.
      HX  - HEAT INDEX.         WCI  - WIND CHILL INDEX.
$



USA.gov is the U.S. government's official web portal to all federal, state and local government web resources and services.